| time (UTC) | temp F | wind direction | speed MPH | gust MPH | rain 1hr in | rain 24hr in | rain mn in | humidity % | barometer mb |
| 20260510212515 | 72 | 156 | 1.0 | 3.0 | 0.00 | 0.00 | 0.00 | 30 | 1027.7 |
| 20260510211515 | 71 | 95 | 0.0 | 3.0 | 0.00 | 0.00 | 0.00 | 31 | 1027.8 |
| 20260510210516 | 70 | 114 | 0.0 | 2.0 | 0.00 | 0.00 | 0.00 | 31 | 1027.9 |
| 20260510205536 | 71 | 92 | 1.0 | 4.0 | 0.00 | 0.00 | 0.00 | 30 | 1028.0 |
| 20260510204517 | 71 | 141 | 0.0 | 1.0 | 0.00 | 0.00 | 0.00 | 32 | 1028.0 |
| 20260510203517 | 69 | 14 | 0.0 | 2.0 | 0.00 | 0.00 | 0.00 | 34 | 1028.1 |
| 20260510202515 | 70 | 104 | 1.0 | 3.0 | 0.00 | 0.00 | 0.00 | 31 | 1028.0 |
| 20260510201535 | 70 | 52 | 1.0 | 6.0 | 0.00 | 0.00 | 0.00 | 31 | 1028.1 |
| 20260510200515 | 68 | 169 | 0.0 | 2.0 | 0.00 | 0.00 | 0.00 | 34 | 1028.2 |
| 20260510195516 | 67 | 111 | 1.0 | 3.0 | 0.00 | 0.00 | 0.00 | 35 | 1028.2 |
| 20260510194516 | 67 | 139 | 2.0 | 7.0 | 0.00 | 0.00 | 0.00 | 35 | 1028.2 |
| 20260510193537 | 67 | 105 | 1.0 | 7.0 | 0.00 | 0.00 | 0.00 | 37 | 1028.3 |
| 20260510192517 | 67 | 106 | 1.0 | 3.0 | 0.00 | 0.00 | 0.00 | 38 | 1028.4 |
| 20260510191535 | 67 | 107 | 1.0 | 3.0 | 0.00 | 0.00 | 0.00 | 38 | 1028.5 |
| 20260510190535 | 67 | 51 | 1.0 | 2.0 | 0.00 | 0.00 | 0.00 | 39 | 1028.6 |
| 20260510185516 | 64 | 180 | 0.0 | 2.0 | 0.00 | 0.00 | 0.00 | 40 | 1028.7 |
| 20260510184516 | 65 | 129 | 1.0 | 6.0 | 0.00 | 0.00 | 0.00 | 39 | 1028.8 |
| 20260510183517 | 65 | 103 | 0.0 | 2.0 | 0.00 | 0.00 | 0.00 | 40 | 1028.9 |
| 20260510182517 | 65 | 287 | 0.0 | 3.0 | 0.00 | 0.00 | 0.00 | 40 | 1028.9 |
| 20260510181515 | 64 | 74 | 0.0 | 2.0 | 0.00 | 0.00 | 0.00 | 41 | 1028.9 |
| 20260510180515 | 63 | 101 | 0.0 | 1.0 | 0.00 | 0.00 | 0.00 | 44 | 1029.0 |
| 20260510175515 | 62 | 339 | 0.0 | 3.0 | 0.00 | 0.00 | 0.00 | 44 | 1029.1 |
| 20260510174516 | 60 | 118 | 0.0 | 1.0 | 0.00 | 0.00 | 0.00 | 46 | 1029.1 |
| 20260510173516 | 60 | 70 | 0.0 | 1.0 | 0.00 | 0.00 | 0.00 | 49 | 1029.3 |
| 20260510172516 | 60 | 2 | 0.0 | 1.0 | 0.00 | 0.00 | 0.00 | 52 | 1029.3 |
| 20260510171517 | 59 | 252 | 0.0 | 2.0 | 0.00 | 0.00 | 0.00 | 52 | 1029.3 |
| 20260510170515 | 57 | 146 | 0.0 | 1.0 | 0.00 | 0.00 | 0.00 | 57 | 1029.2 |
| 20260510165515 | 56 | 135 | 1.0 | 4.0 | 0.00 | 0.00 | 0.00 | 59 | 1029.3 |
| 20260510164516 | 55 | 135 | 0.0 | 1.0 | 0.00 | 0.00 | 0.00 | 61 | 1029.3 |
| 20260510163516 | 57 | 159 | 0.0 | 2.0 | 0.00 | 0.00 | 0.00 | 59 | 1029.2 |
| 20260510162556 | 56 | 13 | 0.0 | 1.0 | 0.00 | 0.00 | 0.00 | 60 | 1029.2 |
| 20260510161517 | 55 | 346 | 0.0 | 1.0 | 0.00 | 0.00 | 0.00 | 62 | 1029.2 |
| 20260510160537 | 55 | 255 | 0.0 | 4.0 | 0.00 | 0.00 | 0.00 | 65 | 1029.3 |
| 20260510155515 | 54 | 238 | 0.0 | 2.0 | 0.00 | 0.00 | 0.00 | 67 | 1029.3 |
| 20260510154515 | 53 | 138 | 1.0 | 4.0 | 0.00 | 0.00 | 0.00 | 69 | 1029.4 |
| 20260510153516 | 52 | 138 | 0.0 | 2.0 | 0.00 | 0.00 | 0.00 | 71 | 1029.4 |
| 20260510152536 | 52 | 139 | 2.0 | 6.0 | 0.00 | 0.00 | 0.00 | 71 | 1029.4 |
| 20260510151536 | 51 | 269 | 0.0 | 3.0 | 0.00 | 0.00 | 0.00 | 73 | 1029.5 |
| 20260510150517 | 50 | 218 | 0.0 | 1.0 | 0.00 | 0.00 | 0.00 | 75 | 1029.5 |
| 20260510145517 | 50 | 200 | 0.0 | 3.0 | 0.00 | 0.00 | 0.00 | 75 | 1029.4 |
| 20260510144515 | 50 | 174 | 0.0 | 2.0 | 0.00 | 0.00 | 0.00 | 75 | 1029.5 |
| 20260510143535 | 49 | 239 | 0.0 | 2.0 | 0.00 | 0.00 | 0.00 | 78 | 1029.5 |
| 20260510142516 | 49 | 0.0 | 0.0 | 0.00 | 0.00 | 0.00 | 79 | 1029.5 | |
| 20260510141516 | 48 | 0.0 | 0.0 | 0.00 | 0.00 | 0.00 | 81 | 1029.5 | |
| 20260510140557 | 47 | 305 | 0.0 | 1.0 | 0.00 | 0.00 | 0.00 | 82 | 1029.4 |
| 20260510135517 | 47 | 305 | 0.0 | 1.0 | 0.00 | 0.00 | 0.00 | 83 | 1029.4 |
| 20260510134514 | 47 | 0.0 | 0.0 | 0.00 | 0.00 | 0.00 | 84 | 1029.5 | |
| 20260510133535 | 47 | 0.0 | 0.0 | 0.00 | 0.00 | 0.00 | 85 | 1029.5 | |
| 20260510132516 | 47 | 0.0 | 0.0 | 0.00 | 0.00 | 0.00 | 85 | 1029.4 | |
| 20260510131516 | 46 | 0.0 | 0.0 | 0.00 | 0.00 | 0.00 | 85 | 1029.4 | |
| 20260510130536 | 46 | 0.0 | 0.0 | 0.00 | 0.00 | 0.00 | 86 | 1029.4 | |
| 20260510125516 | 46 | 0.0 | 0.0 | 0.00 | 0.00 | 0.00 | 86 | 1029.3 | |
| 20260510124517 | 46 | 0.0 | 0.0 | 0.00 | 0.00 | 0.00 | 87 | 1029.3 | |
| 20260510123535 | 45 | 0.0 | 0.0 | 0.00 | 0.00 | 0.00 | 88 | 1029.1 | |
| 20260510122515 | 45 | 0.0 | 0.0 | 0.00 | 0.00 | 0.00 | 88 | 1029.0 | |
| 20260510121535 | 45 | 0.0 | 0.0 | 0.00 | 0.00 | 0.00 | 87 | 1028.8 | |
| 20260510120516 | 45 | 0.0 | 0.0 | 0.00 | 0.00 | 0.00 | 88 | 1028.8 | |
| 20260510115516 | 45 | 0.0 | 0.0 | 0.00 | 0.00 | 0.00 | 88 | 1028.7 | |
| 20260510114517 | 45 | 0.0 | 0.0 | 0.00 | 0.00 | 0.00 | 88 | 1028.7 | |
| 20260510113517 | 45 | 305 | 0.0 | 1.0 | 0.00 | 0.00 | 0.00 | 88 | 1028.7 |
| 20260510112515 | 45 | 306 | 0.0 | 2.0 | 0.00 | 0.00 | 0.00 | 87 | 1028.7 |
| 20260510111515 | 45 | 0.0 | 0.0 | 0.00 | 0.00 | 0.00 | 87 | 1028.7 | |
| 20260510110516 | 45 | 0.0 | 0.0 | 0.00 | 0.00 | 0.00 | 86 | 1028.6 | |
| 20260510105536 | 45 | 0.0 | 0.0 | 0.00 | 0.00 | 0.00 | 87 | 1028.5 | |
| 20260510104516 | 45 | 0.0 | 0.0 | 0.00 | 0.00 | 0.00 | 86 | 1028.5 | |
| 20260510103516 | 45 | 0.0 | 0.0 | 0.00 | 0.00 | 0.00 | 86 | 1028.4 | |
| 20260510102517 | 45 | 0.0 | 0.0 | 0.00 | 0.00 | 0.00 | 86 | 1028.3 | |
| 20260510101515 | 45 | 0.0 | 0.0 | 0.00 | 0.00 | 0.00 | 86 | 1028.1 | |
| 20260510100515 | 45 | 0.0 | 0.0 | 0.00 | 0.00 | 0.00 | 86 | 1028.1 | |
| 20260510095517 | 45 | 0.0 | 0.0 | 0.00 | 0.00 | 0.00 | 85 | 1028.1 | |
| 20260510094516 | 45 | 0.0 | 0.0 | 0.00 | 0.00 | 0.00 | 85 | 1028.1 | |
| 20260510093517 | 45 | 0.0 | 0.0 | 0.00 | 0.00 | 0.00 | 85 | 1028.0 | |
| 20260510092517 | 45 | 306 | 0.0 | 1.0 | 0.00 | 0.00 | 0.00 | 85 | 1027.9 |
| 20260510091517 | 46 | 306 | 0.0 | 1.0 | 0.00 | 0.00 | 0.00 | 85 | 1027.8 |
| 20260510090515 | 46 | 0.0 | 0.0 | 0.00 | 0.00 | 0.00 | 84 | 1027.7 | |
| 20260510085515 | 46 | 0.0 | 0.0 | 0.00 | 0.00 | 0.00 | 82 | 1027.7 | |
| 20260510084516 | 46 | 0.0 | 0.0 | 0.00 | 0.00 | 0.00 | 81 | 1027.8 | |
| 20260510083536 | 46 | 0.0 | 0.0 | 0.00 | 0.00 | 0.00 | 80 | 1027.8 | |
| 20260510082536 | 46 | 0.0 | 0.0 | 0.00 | 0.00 | 0.00 | 80 | 1027.8 | |
| 20260510081516 | 46 | 9 | 0.0 | 1.0 | 0.00 | 0.00 | 0.00 | 80 | 1027.7 |
| 20260510080517 | 46 | 9 | 0.0 | 1.0 | 0.00 | 0.00 | 0.00 | 80 | 1027.7 |
| 20260510075515 | 46 | 341 | 0.0 | 1.0 | 0.00 | 0.00 | 0.00 | 80 | 1027.6 |
| 20260510074515 | 46 | 337 | 0.0 | 1.0 | 0.00 | 0.00 | 0.00 | 81 | 1027.6 |
| 20260510073515 | 46 | 292 | 0.0 | 1.0 | 0.00 | 0.00 | 0.00 | 81 | 1027.6 |
| 20260510072516 | 46 | 0.0 | 0.0 | 0.00 | 0.00 | 0.00 | 82 | 1027.8 | |
| 20260510071516 | 46 | 292 | 0.0 | 1.0 | 0.00 | 0.00 | 0.00 | 82 | 1028.0 |
| 20260510070517 | 46 | 52 | 0.0 | 2.0 | 0.00 | 0.00 | 0.00 | 81 | 1028.1 |
| 20260510065517 | 46 | 336 | 0.0 | 1.0 | 0.00 | 0.00 | 0.00 | 80 | 1028.1 |
| 20260510064515 | 46 | 251 | 0.0 | 1.0 | 0.00 | 0.00 | 0.00 | 80 | 1028.0 |
| 20260510063515 | 46 | 348 | 0.0 | 1.0 | 0.00 | 0.00 | 0.00 | 81 | 1028.1 |
| 20260510062515 | 46 | 341 | 0.0 | 1.0 | 0.00 | 0.00 | 0.00 | 81 | 1028.2 |
| 20260510061516 | 46 | 348 | 0.0 | 1.0 | 0.00 | 0.00 | 0.00 | 82 | 1028.1 |
| 20260510060536 | 46 | 38 | 0.0 | 2.0 | 0.00 | 0.00 | 0.00 | 81 | 1027.9 |
| 20260510055517 | 46 | 45 | 1.0 | 4.0 | 0.00 | 0.00 | 0.00 | 81 | 1027.8 |
| 20260510054515 | 47 | 65 | 0.0 | 4.0 | 0.00 | 0.00 | 0.00 | 81 | 1027.7 |
| 20260510053515 | 47 | 47 | 0.0 | 2.0 | 0.00 | 0.00 | 0.00 | 81 | 1027.7 |
| 20260510052515 | 47 | 57 | 0.0 | 2.0 | 0.00 | 0.00 | 0.00 | 81 | 1027.5 |
| 20260510051536 | 47 | 24 | 0.0 | 7.0 | 0.00 | 0.00 | 0.00 | 81 | 1027.5 |
| 20260510050556 | 47 | 34 | 1.0 | 5.0 | 0.00 | 0.00 | 0.00 | 80 | 1027.7 |
| 20260510045516 | 48 | 357 | 1.0 | 5.0 | 0.00 | 0.00 | 0.00 | 80 | 1027.5 |
| 20260510044517 | 48 | 52 | 0.0 | 2.0 | 0.00 | 0.00 | 0.00 | 79 | 1027.3 |
| 20260510043515 | 48 | 44 | 0.0 | 2.0 | 0.00 | 0.00 | 0.00 | 78 | 1027.6 |
| 20260510042515 | 48 | 282 | 0.0 | 2.0 | 0.00 | 0.00 | 0.00 | 78 | 1027.4 |
| 20260510041515 | 49 | 316 | 0.0 | 2.0 | 0.00 | 0.00 | 0.00 | 78 | 1027.2 |
| 20260510040536 | 49 | 299 | 1.0 | 4.0 | 0.00 | 0.00 | 0.00 | 77 | 1027.9 |
| 20260510035536 | 49 | 46 | 1.0 | 10.0 | 0.00 | 0.00 | 0.00 | 77 | 1027.9 |
| 20260510034516 | 49 | 26 | 1.0 | 4.0 | 0.00 | 0.00 | 0.00 | 77 | 1027.6 |
| 20260510033537 | 49 | 337 | 2.0 | 8.0 | 0.00 | 0.00 | 0.00 | 77 | 1027.4 |
| 20260510032515 | 49 | 331 | 1.0 | 8.0 | 0.00 | 0.00 | 0.00 | 76 | 1027.1 |
| 20260510031515 | 50 | 289 | 2.0 | 6.0 | 0.00 | 0.00 | 0.00 | 75 | 1026.6 |
| 20260510030516 | 50 | 281 | 1.0 | 4.0 | 0.00 | 0.00 | 0.00 | 74 | 1026.1 |
| 20260510025516 | 50 | 239 | 2.0 | 8.0 | 0.00 | 0.00 | 0.00 | 73 | 1025.5 |
| 20260510024516 | 51 | 328 | 3.0 | 10.0 | 0.00 | 0.00 | 0.00 | 72 | 1025.0 |
| 20260510023516 | 51 | 304 | 1.0 | 4.0 | 0.00 | 0.00 | 0.00 | 71 | 1024.7 |
| 20260510022517 | 52 | 20 | 2.0 | 10.0 | 0.00 | 0.00 | 0.00 | 69 | 1023.9 |
| 20260510021515 | 54 | 320 | 2.0 | 10.0 | 0.00 | 0.00 | 0.00 | 64 | 1022.9 |
| 20260510020515 | 56 | 354 | 2.0 | 11.0 | 0.00 | 0.00 | 0.00 | 57 | 1022.1 |
| 20260510015515 | 58 | 288 | 3.0 | 9.0 | 0.00 | 0.00 | 0.00 | 52 | 1021.3 |
| 20260510014516 | 61 | 317 | 4.0 | 11.0 | 0.00 | 0.00 | 0.00 | 47 | 1021.1 |
| 20260510013516 | 65 | 352 | 4.0 | 13.0 | 0.00 | 0.00 | 0.00 | 41 | 1020.2 |
| 20260510012517 | 66 | 12 | 0.0 | 1.0 | 0.00 | 0.00 | 0.00 | 37 | 1019.1 |
| 20260510011517 | 67 | 188 | 0.0 | 2.0 | 0.00 | 0.00 | 0.00 | 36 | 1019.0 |
| 20260510010515 | 69 | 270 | 0.0 | 2.0 | 0.00 | 0.00 | 0.00 | 33 | 1018.7 |
| 20260510005515 | 69 | 0.0 | 0.0 | 0.00 | 0.00 | 0.00 | 32 | 1018.5 | |
| 20260510004516 | 69 | 0.0 | 0.0 | 0.00 | 0.00 | 0.00 | 30 | 1018.3 | |
| 20260510003516 | 70 | 103 | 0.0 | 2.0 | 0.00 | 0.00 | 0.00 | 29 | 1018.2 |
| 20260510002516 | 70 | 109 | 0.0 | 3.0 | 0.00 | 0.00 | 0.00 | 29 | 1018.1 |
| 20260510001517 | 70 | 125 | 0.0 | 1.0 | 0.00 | 0.00 | 0.00 | 29 | 1018.0 |
| 20260510000514 | 71 | 95 | 0.0 | 1.0 | 0.00 | 0.00 | 0.00 | 28 | 1018.1 |
| 20260509235515 | 71 | 136 | 0.0 | 2.0 | 0.00 | 0.00 | 0.00 | 28 | 1018.0 |
| 20260509234515 | 70 | 133 | 1.0 | 3.0 | 0.00 | 0.00 | 0.00 | 29 | 1017.9 |
| 20260509233516 | 70 | 101 | 0.0 | 1.0 | 0.00 | 0.00 | 0.00 | 28 | 1018.1 |
| 20260509232516 | 70 | 101 | 0.0 | 1.0 | 0.00 | 0.00 | 0.00 | 28 | 1018.1 |
| 20260509231517 | 70 | 101 | 0.0 | 1.0 | 0.00 | 0.00 | 0.00 | 28 | 1018.0 |
| 20260509230537 | 69 | 101 | 0.0 | 1.0 | 0.00 | 0.00 | 0.00 | 28 | 1017.9 |
| 20260509225515 | 69 | 101 | 0.0 | 1.0 | 0.00 | 0.00 | 0.00 | 29 | 1017.9 |
| 20260509224515 | 70 | 101 | 0.0 | 1.0 | 0.00 | 0.00 | 0.00 | 28 | 1017.9 |
| 20260509223516 | 70 | 94 | 0.0 | 2.0 | 0.00 | 0.00 | 0.00 | 28 | 1017.8 |
| 20260509222516 | 70 | 103 | 0.0 | 2.0 | 0.00 | 0.00 | 0.00 | 28 | 1017.7 |
| 20260509221516 | 71 | 254 | 0.0 | 1.0 | 0.00 | 0.00 | 0.00 | 28 | 1017.8 |
| 20260509220516 | 71 | 325 | 0.0 | 2.0 | 0.00 | 0.00 | 0.00 | 27 | 1017.8 |
| 20260509215537 | 71 | 243 | 0.0 | 2.0 | 0.00 | 0.00 | 0.00 | 27 | 1017.8 |
| 20260509214515 | 72 | 275 | 0.0 | 2.0 | 0.00 | 0.00 | 0.00 | 26 | 1017.7 |
| 20260509213515 | 74 | 267 | 1.0 | 5.0 | 0.00 | 0.00 | 0.00 | 25 | 1017.8 |